TimeCST,TemperatureF,Dew PointF,Humidity,Sea Level PressureIn,VisibilityMPH,Wind Direction,Wind SpeedMPH,Gust SpeedMPH,PrecipitationIn,Events,Conditions,WindDirDegrees,DateUTC
12:15 AM,46.4,42.8,87,29.94,7.0,WNW,4.6,-,N/A,,Overcast,290,2012-11-07 06:15:00
12:35 AM,46.4,42.8,87,29.94,5.0,WSW,3.5,-,N/A,,Overcast,250,2012-11-07 06:35:00
12:55 AM,46.4,42.8,87,29.94,5.0,West,3.5,-,N/A,,Overcast,270,2012-11-07 06:55:00
1:15 AM,46.4,42.8,87,29.94,5.0,West,4.6,-,N/A,,Overcast,280,2012-11-07 07:15:00
1:35 AM,46.4,42.8,87,29.93,4.0,WNW,4.6,-,N/A,,Overcast,300,2012-11-07 07:35:00
1:55 AM,46.4,42.8,87,29.93,5.0,WNW,4.6,-,N/A,,Overcast,300,2012-11-07 07:55:00
2:15 AM,46.4,42.8,87,29.92,4.0,WNW,4.6,-,N/A,,Overcast,290,2012-11-07 08:15:00
2:55 AM,46.4,42.8,87,29.91,5.0,West,3.5,-,N/A,,Overcast,270,2012-11-07 08:55:00
3:15 AM,46.4,42.8,87,29.91,6.0,Calm,Calm,-,N/A,,Overcast,0,2012-11-07 09:15:00
3:35 AM,46.4,42.8,87,29.91,7.0,WSW,4.6,-,N/A,,Overcast,250,2012-11-07 09:35:00
3:55 AM,46.4,42.8,87,29.91,8.0,Calm,Calm,-,N/A,,Overcast,0,2012-11-07 09:55:00
4:15 AM,46.4,42.8,87,29.92,7.0,Calm,Calm,-,N/A,,Mostly Cloudy,0,2012-11-07 10:15:00
4:35 AM,46.4,42.8,87,29.92,5.0,West,3.5,-,N/A,,Partly Cloudy,280,2012-11-07 10:35:00
4:55 AM,46.4,42.8,87,29.92,5.0,WNW,3.5,-,N/A,,Mostly Cloudy,300,2012-11-07 10:55:00
5:15 AM,46.4,42.8,87,29.92,5.0,West,3.5,-,N/A,,Overcast,270,2012-11-07 11:15:00
5:35 AM,46.4,42.8,87,29.93,5.0,West,4.6,-,N/A,,Overcast,280,2012-11-07 11:35:00
5:55 AM,46.4,42.8,87,29.93,5.0,West,5.8,-,N/A,,Mostly Cloudy,280,2012-11-07 11:55:00
6:15 AM,46.4,42.8,87,29.94,4.0,WNW,5.8,-,N/A,,Overcast,290,2012-11-07 12:15:00
6:35 AM,46.4,42.8,87,29.94,5.0,West,3.5,-,N/A,,Mostly Cloudy,280,2012-11-07 12:35:00
6:55 AM,46.4,42.8,87,29.94,5.0,WNW,5.8,-,N/A,,Partly Cloudy,290,2012-11-07 12:55:00
7:15 AM,46.4,42.8,87,29.94,9.0,WNW,5.8,-,N/A,,Scattered Clouds,300,2012-11-07 13:15:00
7:35 AM,48.2,42.8,82,29.95,10.0,WNW,8.1,-,N/A,,Scattered Clouds,300,2012-11-07 13:35:00
7:55 AM,46.4,42.8,87,29.95,10.0,NW,9.2,-,N/A,,Overcast,310,2012-11-07 13:55:00
8:15 AM,48.2,42.8,82,29.96,10.0,NW,9.2,-,N/A,,Overcast,310,2012-11-07 14:15:00
8:35 AM,48.2,41.0,76,29.96,10.0,NW,9.2,-,N/A,,Overcast,310,2012-11-07 14:35:00
8:55 AM,50.0,41.0,71,29.96,10.0,WNW,8.1,-,N/A,,Mostly Cloudy,290,2012-11-07 14:55:00
9:15 AM,51.8,39.2,62,29.95,10.0,WNW,10.4,-,N/A,,Mostly Cloudy,290,2012-11-07 15:15:00
9:35 AM,51.8,37.4,58,29.96,10.0,NW,12.7,19.6,N/A,,Mostly Cloudy,320,2012-11-07 15:35:00
9:55 AM,51.8,37.4,58,29.96,10.0,NW,15.0,20.7,N/A,,Mostly Cloudy,310,2012-11-07 15:55:00
10:15 AM,51.8,37.4,58,29.95,10.0,NW,13.8,19.6,N/A,,Mostly Cloudy,320,2012-11-07 16:15:00
10:35 AM,53.6,37.4,54,29.95,10.0,NW,13.8,20.7,N/A,,Mostly Cloudy,320,2012-11-07 16:35:00
10:55 AM,55.4,35.6,47,29.95,10.0,NW,17.3,20.7,N/A,,Scattered Clouds,320,2012-11-07 16:55:00
11:15 AM,55.4,33.8,44,29.93,10.0,NW,12.7,21.9,N/A,,Mostly Cloudy,310,2012-11-07 17:15:00
11:35 AM,55.4,33.8,44,29.93,10.0,NNW,13.8,20.7,N/A,,Mostly Cloudy,330,2012-11-07 17:35:00
11:55 AM,55.4,33.8,44,29.92,10.0,WNW,17.3,24.2,N/A,,Mostly Cloudy,300,2012-11-07 17:55:00
12:15 PM,55.4,30.2,38,29.92,10.0,NW,16.1,25.3,N/A,,Mostly Cloudy,310,2012-11-07 18:15:00
12:35 PM,55.4,33.8,44,29.91,10.0,WNW,15.0,24.2,N/A,,Mostly Cloudy,300,2012-11-07 18:35:00
12:55 PM,57.2,30.2,36,29.91,10.0,NNW,16.1,21.9,N/A,,Overcast,330,2012-11-07 18:55:00
1:15 PM,55.4,32.0,41,29.90,10.0,NW,13.8,-,N/A,,Overcast,310,2012-11-07 19:15:00
1:35 PM,55.4,33.8,44,29.90,10.0,WNW,15.0,20.7,N/A,,Overcast,290,2012-11-07 19:35:00
1:55 PM,55.4,33.8,44,29.90,10.0,NNW,12.7,19.6,N/A,,Overcast,330,2012-11-07 19:55:00
2:15 PM,53.6,33.8,47,29.91,10.0,NW,15.0,18.4,N/A,,Overcast,320,2012-11-07 20:15:00
2:35 PM,53.6,33.8,47,29.91,10.0,NW,9.2,-,N/A,,Overcast,320,2012-11-07 20:35:00
2:55 PM,53.6,33.8,47,29.91,10.0,NW,8.1,-,N/A,,Overcast,310,2012-11-07 20:55:00
3:15 PM,53.6,35.6,51,29.92,10.0,NW,6.9,-,N/A,,Overcast,310,2012-11-07 21:15:00
9:55 PM,42.8,37.4,81,30.06,10.0,NNW,8.1,-,N/A,,Clear,330,2012-11-08 03:55:00
10:15 PM,42.8,37.4,81,30.06,10.0,NNW,8.1,-,N/A,,Clear,340,2012-11-08 04:15:00
10:35 PM,41.0,37.4,87,30.06,10.0,NNW,8.1,-,N/A,,Clear,330,2012-11-08 04:35:00
10:55 PM,41.0,37.4,87,30.06,10.0,NNW,5.8,-,N/A,,Clear,340,2012-11-08 04:55:00
11:15 PM,41.0,37.4,87,30.06,10.0,NNW,6.9,-,N/A,,Clear,330,2012-11-08 05:15:00
11:35 PM,39.2,35.6,87,30.06,8.0,NNW,5.8,-,N/A,,Clear,340,2012-11-08 05:35:00
11:55 PM,39.2,35.6,87,30.07,7.0,NNW,6.9,-,N/A,,Clear,330,2012-11-08 05:55:00